Regional Weather Roundup
Issued by NWS

Home | Current Version | Previous Version | Text Only | Print | Product List | Glossary On
Versions: 1 2 3 4 5 6 7 8 9 10 11 12 13 14 15 16 17 18 19 20 21 22 23 24 25 26 27 28 29 30 31 32 33 34 35 36 37 38 39 40 41 42 43 44 45 46 47 48 49 50
000
ASUS42 KTBW 012310
RWRFL
FLORIDA REGIONAL WEATHER ROUNDUP
NATIONAL WEATHER SERVICE TAMPA BAY RUSKIN FL
600 PM EST SUN MAR 01 2015

NOTE: "FAIR" INDICATES FEW OR NO CLOUDS BELOW 12,000 FEET WITH NO
SIGNIFICANT WEATHER AND/OR OBSTRUCTIONS TO VISIBILITY.


FLZ001>010-012>015-112-114-115-020000-
PANHANDLE FLORIDA

CITY           SKY/WX    TMP DP  RH WIND       PRES   REMARKS
PENSACOLA      CLOUDY    61  56  83 VRB3      30.30S
PENSACOLA NAS  FOG       58  57  97 E7        30.30R VSB 3/4
MILTON NAS     CLOUDY    57  54  89 NE5       30.32S
CRESTVIEW      CLOUDY    55  54  96 NE5       30.34S FOG
DUKE FIELD     CLOUDY    56  54  92 NE6       30.31S
VALPARAISO     CLOUDY    59  55  88 NE7       30.31S
MARY ESTHER    DRIZZLE   63  55  77 E3        30.30F
TRI COUNTY     CLOUDY    54  51  90 NE5       30.35S FOG
PANAMA CITY    CLOUDY    65  59  81 N3        30.30S
TYNDALL AFB    CLOUDY    64  60  85 E3        30.31S
APALACHICOLA   FOG       63  59  87 NE5       30.31R VSB 3/4

STATION/POSITION SKY/WX   TEMP    WIND        PRES    WAVE   SWELL
                          AIR SEA DIR/SP/G            HT/PER HT/PER
                          (F)     (DEG/KT/KT) (MB)    (FT/S) (FT/S)
30.1N   87.6W              58 62   60/ 16/ 17 1024.7F   4/ 6   2/11
29.2N   88.2W              70 71  130/ 12/ 14 1024.8F   4/ 6   3/ 6
28.7N   86.0W              66 68   80/  8/ 10 1025.6R   3/ 6   3/ 6
PANAMA CITY BEAC           64 57   50/  2/  5 1026.1R
CAPE SAN BLAS    NOT AVBL
TOWER C                    57      50/ 11/ 12 1026.1R
28.5N   84.5W              63 66   60/  4/  6 1025.4R   2/ 4   2/ 4

$$
FLZ011-016>038-118-127-128-134-139-239-020000-
NORTH FLORIDA

CITY           SKY/WX    TMP DP  RH WIND       PRES   REMARKS
MARIANNA       CLOUDY    54  53  97 N8        30.35R
TALLAHASSEE    CLOUDY    64  57  78 N5        30.33R
PERRY          CLOUDY    66  59  78 N3        30.32R
CROSS CITY       N/A     72  64  76 N6        30.30R
LAKE CITY      CLOUDY    63  59  88 NE3       30.32S
GAINESVILLE    CLOUDY    70  65  84 N10       30.30R
MAYPORT NAS    CLOUDY    51  50  96 N9        30.35S FOG
JACKSONVILLE   CLOUDY    57  55  93 E6        30.34R FOG
JAX NAS        CLOUDY    58  53  84 NE6       30.34S
JAX CRAIG      CLOUDY    53  50  89 NE6       30.35R FOG
JAX CECIL      CLOUDY    63  57  82 VRB6      30.34R FOG
FERNANDINA BEA CLOUDY    55  54  94 N7        30.34S
ST AUGUSTINE   CLOUDY    54  52  94 N7        30.35S FOG

STATION/POSITION SKY/WX   TEMP    WIND        PRES    WAVE   SWELL
                          AIR SEA DIR/SP/G            HT/PER HT/PER
                          (F)     (DEG/KT/KT) (MB)    (FT/S) (FT/S)
SHELL POINT      NOT AVBL
KEATON BEACH               68      20/  3/  5 1026.3R
CEDAR KEY                  72     170/  2/  2 1025.4F
FERNANDINA                 50 53   20/  6/  8 1027.0F
30.7N   81.3W                 52                N/A     5/10   2/12
MAYPORT                    51 54   20/  8/  9 1027.6S
31.4N   80.9W              49 53   30/ 12/ 14 1027.7F   5/10   5/10
ST AUGUSTINE               51     360/ 14/ 16 1027.6F

$$
FLZ040-043>046-052-053-057-058-063-144-020000-
INTERIOR CENTRAL FLORIDA

CITY           SKY/WX    TMP DP  RH WIND       PRES   REMARKS
OCALA          PTCLDY    77  66  69 E5        30.29R
THE VILLAGES     N/A     77  68  73 E8        30.19R
LEESBURG       PTCLDY    75  68  78 E8        30.30R
SANFORD        PTCLDY    74  67  78 E9        30.29S
ORLANDO EXEC   PTCLDY    76  67  73 E8        30.28S
ORLANDO INTL   MOCLDY    76  69  79 E5        30.28S
KISSIMMEE      CLEAR     77  70  78 E12       30.28S
WINTER HAVEN   PTCLDY    78  67  68 E7        30.28R
LAKELAND       PTCLDY    77  70  78 E6        30.27R
BARTOW         FAIR      75  66  73 E5        30.28R
OKEECHOBEE     PTCLDY    77  66  69 E3        30.27S

$$
FLZ041-047-054-059-064-141-147-020000-
EAST CENTRAL FLORIDA

CITY           SKY/WX    TMP DP  RH WIND       PRES   REMARKS
ORMOND BEACH   CLOUDY    57  55  94 NE6       30.32S FOG
DAYTONA BEACH  CLOUDY    62  59  90 NE7       30.32S FOG
DELAND         PTCLDY   N/A N/A N/A E8        30.31S
NEW SMYRNA BEA CLOUDY    59  57  94 N6        30.32S FOG
JFK SPACE CTR  PTCLDY    73  68  85 SE8       30.28S
TITUSVILLE     PTCLDY    73  70  88 E12       30.30R
MELBOURNE      CLEAR     72  68  87 E9        30.29R
VERO BEACH     CLEAR     75  67  76 E9        30.28S
FT PIERCE      CLEAR     75  68  78 E12       30.27F
STUART         PTCLDY    73  66  78 E9        30.29R

STATION/POSITION SKY/WX   TEMP    WIND        PRES    WAVE   SWELL
                          AIR SEA DIR/SP/G            HT/PER HT/PER
                          (F)     (DEG/KT/KT) (MB)    (FT/S) (FT/S)
28.5N   80.2W              72 70  110/  8/ 10 1025.9S
28.9N   78.5W              72 75  100/ 14/ 17 1026.7R   8/10   7/10
TRIDENT PIER               71 65  100/  3/  5 1026.5R
28.4N   80.5W                 65                N/A     4/11   2/11
27.6N   80.2W                 73                N/A     5/11   2/11

$$
FLZ050-056-061-142-242-148-248-149-249-151-251-155-255-
160-260-020000-
WEST CENTRAL FLORIDA

CITY           SKY/WX    TMP DP  RH WIND       PRES   REMARKS
CRYSTAL RIVER  FAIR      77  64  65 W3        30.27S
INVERNESS      FAIR      79  46  31 CALM      30.28R
BROOKSVILLE    PTCLDY    78  67  68 W8        30.27R
ZEPHYRHILLS    FAIR      79  64  61 CALM      30.27S
CLEARWATER     MOCLDY    76  67  73 NW8       30.26R
TAMPA INTL     MOCLDY    81  65  58 N6        30.26R
TAMPA EXEC     CLOUDY    81  68  65 CALM      30.26R
PLANT CITY     MOCLDY   N/A N/A N/A E5        30.28R
MACDILL AFB    CLOUDY    77  68  73 W6        30.26R
PETER O KNIGHT HVY RAIN  81  68  65 CALM      30.26R
ST PETERSBURG  MOCLDY    78  66  66 W7        30.24R
SARASOTA       CLEAR     77  66  68 NW7       30.24R
VENICE         FAIR      75  66  73 NW9       30.25R

STATION/POSITION SKY/WX   TEMP    WIND        PRES    WAVE   SWELL
                          AIR SEA DIR/SP/G            HT/PER HT/PER
                          (F)     (DEG/KT/KT) (MB)    (FT/S) (FT/S)
CEDAR KEY                  72     170/  2/  2 1025.4F
28.5N   84.5W              63 66   60/  4/  6 1025.4R   2/ 4   2/ 4
27.3N   84.3W                 70                N/A     3/ 6
CLEARWATER BEACH           67 63  360/  9/ 10 1024.9S
MIDDLE TAMPA BAY           70     310/  9/  9 1024.9S
VENICE                     71 66  340/ 13/ 13 1023.7R

$$
FLZ066-069-070-075>078-162-262-165-265-020000-
SOUTHWEST FLORIDA AND KEYS

CITY           SKY/WX    TMP DP  RH WIND       PRES   REMARKS
PUNTA GORDA    MOCLDY    78  70  76 SE3       30.25R
FT MYERS       CLOUDY    79  68  69 NE8       30.23R
SOUTHWEST INTL MOCLDY    78  69  73 E6        30.23S
NAPLES         MOCLDY    73  32  22 W6        30.24R
MARCO ISLAND   CLOUDY    73  70  88 NW6       30.23S
IMMOKALEE      CLEAR    N/A N/A N/A CALM      30.24S
MARATHON       PTCLDY    77  71  82 E10G20    30.22S
KEY WEST NAS   PTCLDY    77  70  79 E16       30.21S
KEY WEST INTL  CLEAR     77  71  82 E14       30.22R

STATION/POSITION SKY/WX   TEMP    WIND        PRES    WAVE   SWELL
                          AIR SEA DIR/SP/G            HT/PER HT/PER
                          (F)     (DEG/KT/KT) (MB)    (FT/S) (FT/S)
VENICE                     71 66  340/ 13/ 13 1023.7R
NAPLES                     71 67  360/  2/  2 1023.9R
26.0N   85.6W              75 77   90/ 12/ 14 1023.5R   4/ 6   3/ 6
DRY TORTUGAS               73      70/ 10/ 11 1022.6S
SAND KEY                   75      90/ 17/ 19 1023.0R
SOMBRERO KEY               76      80/ 17/ 18 1023.8S
LONG KEY                   77 79   90/ 16/ 18 1024.3R
MOLASSES REEF              75 77   60/ 16/ 18 1023.8R

$$
FLZ067-068-071>074-168-172>174-020000-
SOUTHEAST FLORIDA

CITY           SKY/WX    TMP DP  RH WIND       PRES   REMARKS
W PALM BEACH   MOCLDY    77  69  76 E12       30.26S
FT LAUDER-EXEC PTCLDY    77  67  71 E12       30.26R
FT LAUDERDALE  PTCLDY    75  69  81 E13       30.25S
POMPANO BEACH  CLEAR     76  67  73 E10       30.26S
PEMBROKE PINES PTCLDY    77  66  68 E10       30.27R
OPA LOCKA      PTCLDY    77  66  68 E13       30.26R
MIAMI          PTCLDY    77  66  68 E13       30.25S
WEST KENDALL   PTCLDY    76  67  73 E16       30.25S
HOMESTEAD      CLEAR     76  68  76 E12       30.24

STATION/POSITION SKY/WX   TEMP    WIND        PRES    WAVE   SWELL
                          AIR SEA DIR/SP/G            HT/PER HT/PER
                          (F)     (DEG/KT/KT) (MB)    (FT/S) (FT/S)
PORT EVERGLADES            76      80/  7/ 11 1024.5
VIRGINIA KEY               76 76   80/ 12/ 14 1023.9S
LAKE WORTH                 75 75   70/ 10/ 13 1024.7R
SETTLEMENT POINT           74      70/ 14/ 16 1025.9R

$$




USA.gov is the U.S. government's official web portal to all federal, state and local government web resources and services.